Regional Weather Roundup
Issued by NWS

Home | Current Version | Previous Version | Graphics & Text | Print | Product List | Glossary On
Versions: 1 2 3 4 5 6 7 8 9 10 11 12 13 14 15 16 17 18 19 20 21 22 23 24 25 26 27 28 29 30 31 32 33 34 35 36 37 38 39 40 41 42 43 44 45 46 47 48 49 50
000
ASUS43 KLSX 271959
RWRMO

WEATHER SUMMARY FOR MISSOURI
NATIONAL WEATHER SERVICE SPRINGFIELD MO
200 PM CST FRI FEB 27 2015

NOTE: "FAIR" INDICATES FEW OR NO CLOUDS BELOW 12,000 FEET WITH NO
       SIGNIFICANT WEATHER AND/OR OBSTRUCTIONS TO VISIBILITY.
       CURRENT SKY AND/OR WEATHER CONDITIONS ARE NOT AVAILABLE FOR
       CHILLICOTHE AND FARMINGTON.

MOZ001>031-035>038-043-044-053-054-272100-
...NORTHERN AND WESTERN MISSOURI...

CITY           SKY/WX    TMP DP  RH WIND       PRES   REMARKS
KANSAS CTY INT CLOUDY    15   0  51 SE6       30.56F WCI   6
KANSAS C DTWN  PTSUNNY   17  -1  45 CALM      30.59F
LEE`S SUMMIT   MOSUNNY   16  -1  47 CALM      30.57F
ST JOSEPH      SUNNY     18   1  47 E6        30.59F WCI  10
CHILLICOTHE      N/A     15   2  56 CALM      30.62F
KIRKSVILLE     MOSUNNY   15   2  56 VRB3      30.60F

$$
MOZ066>068-077>081-088>096-101>105-272100-
...SOUTHWEST MISSOURI...

CITY           SKY/WX    TMP DP  RH WIND       PRES   REMARKS
SPRINGFIELD    CLOUDY    20   1  43 CALM      30.51F
JOPLIN         CLOUDY    20   2  45 NE6       30.55F WCI  12

$$
MOZ032>034-039>042-045>050-055>058-069>072-272100-
...CENTRAL MISSOURI...

CITY           SKY/WX    TMP DP  RH WIND       PRES   REMARKS
COLUMBIA       MOSUNNY   20   0  41 N10       30.58F WCI   9
JEFFERSON CITY MOSUNNY   20  -2  38 VRB5      30.61F WCI  13
ROLLA          MOSUNNY   20  -1  40 CALM      30.53F
SEDALIA        MOSUNNY   21   1  41 NE8       30.59F WCI  11
OSAGE BEACH    MOSUNNY   19   0  42 NE6       30.57F WCI  11

$$
MOZ051-052-059>065-272100-
...EAST CENTRAL MISSOURI...

CITY           SKY/WX    TMP DP  RH WIND       PRES   REMARKS
ST LOUIS INTL  PTSUNNY   18   2  49 VRB7      30.64F WCI   9
SPIRIT OF STL  PTSUNNY   20   0  41 N8        30.63F WCI  10
ST CHARLES     SUNNY     15  -1  49 CALM      30.65F

$$
MOZ072>076-082>087-097>100-106>115-272100-
...SOUTH CENTRAL AND SOUTHEAST MISSOURI...

CITY           SKY/WX    TMP DP  RH WIND       PRES   REMARKS
CAPE GIRARDEAU SUNNY     23   7  50 N6        30.61F WCI  16
FARMINGTON     SUNNY     19   3  49 N6        30.59F WCI  11
POPLAR BLUFF   MOSUNNY   21   8  57 E9        30.60F WCI  11
WEST PLAINS    CLOUDY    20  -1  40 NE9       30.50F WCI   9

$$



USA.gov is the U.S. government's official web portal to all federal, state and local government web resources and services.